Weather in Peace River

Canada     56°14′20″N   117°17′18″W
temp.,
°C
wind,
m/s
gust,
m/s
humid.,
%
clouds,
%
prec.,
mm/h
press.,
hPa
HPBL,
m
12 may, wed
wed1200:00+9ese246252 0.0 101999
03:00+6ese227494 0.0 101914
06:00+5se227882 0.0 101926
09:00+10sse3465100 0.0 1017319
12:00+14s4550100 0.0 1015825
15:00+17ssw3442100 0.0 10151478
18:00+17sw5444100 0.0 10141402
21:00+13ssw34605 0.0 101464
13 may, thu
thu1300:00+9ssw227221 0.0 101514
03:00+7ssw228949 1.4 101623
06:00+6nw119065 1.5 101812
09:00+10n357774 0.0 1019404
12:00+15n345681 0.0 10181056
15:00+17n3437100 0.0 10182227
18:00+17nne2234100 0.0 10172155
21:00+13nnw2252100 0.0 101725
14 may, fri
fri1400:00+9ne226596 0.0 101923
03:00+8nne5873100 0.0 1020244
06:00+5nne599268 0.0 1021274
09:00+9nne4578100 0.0 1020588
12:00+13n3362100 0.0 1018954
15:00+15nnw2151100 0.0 10161354
18:00+16n1149100 0.0 10141407
21:00+13nne1165100 0.1 101318
15 may, sat
sat1500:00+10ese1185100 0.6 101325
03:00+9nnw119177 0.4 101228
06:00+7nnw2395100 0.6 101263
09:00+9nnw4684100 0.0 1014581
12:00+10n337695 0.0 1013713
15:00+13ne2260100 0.0 1012950
18:00+13nne2366100 0.2 1010180
21:00+10ne4784100 0.3 1010297
16 may, sun
sun1600:00+8ene2592100 0.7 1011202
03:00+7ene369776 0.0 1011205
06:00+7ene259694 0.0 1011170
09:00+10ese4683100 0.0 1010420
12:00+12se4576100 0.1 1009588
15:00+11sse2387100 0.8 1007132
18:00+10ese3693100 5.1 1006269
21:00+11s2386100 0.0 100552